Погода в Рубежном

Россия / Волгоградская область     49°49′11″N   44°03′09″E
темп.,
°C
ветер,
м/с
пор.,
м/с
влажн.,
%
обл.,
%
осадки,
мм/ч
давл.,
гПа
погр.,
м
22 апреля, чт
чт2200:00+9ююз36810 0.0 1020112
03:00+8юз33845 0.0 102138
06:00+8юз348532 0.0 102288
09:00+13юз33634 0.0 1022527
12:00+16юз33477 0.0 10221796
15:00+17юз3441100 0.0 10212100
18:00+14ссз2261100 0.1 102233
21:00+13всв2261100 0.1 102317
23 апреля, пт
пт2300:00+12св2264100 0.0 102226
03:00+12св3363100 0.0 102238
06:00+11в3370100 0.0 102265
09:00+14юв2259100 0.1 1022288
12:00+16ююв2245100 0.3 10211779
15:00+14з4459100 0.6 1020599
18:00+12св457565 0.5 1020185
21:00+11юв117297 0.5 101910
24 апреля, сб
сб2400:00+10ю337888 0.0 101747
03:00+9ююз348416 0.0 101648
06:00+10ююз3681100 0.0 1016145
09:00+13юз575698 0.0 1015677
12:00+16юз7942100 0.0 10132370
15:00+15зюз81152100 0.1 10121991
18:00+10з7117299 0.4 10141200
21:00+8юз48730 0.4 1015184
25 апреля, вс
вс2500:00+6юз410785 0.0 1015207
03:00+5зюз51285100 0.1 1016484
06:00+5зюз510777 0.0 1018757
09:00+8з666422 0.0 10181013
12:00+12з574425 0.0 10182006
15:00+13з6835100 0.0 10182414
18:00+11зсз4645100 0.0 1018504
21:00+8сз2251100 0.0 101918
26 апреля, пн
пн2600:00+8ссв2254100 0.0 101929
03:00+7в2256100 0.0 101834
06:00+7вюв1261100 0.0 101734
09:00+11ююз3444100 0.0 10171322
12:00+13зюз5735100 0.0 10162514
15:00+14зюз8103892 0.0 10152629
18:00+10з7104663 0.1 10161207
21:00+7зсз23644 0.1 101839